Location: Newark
(27.9675°N, 86.8869°E)
Time: 08:31:41
(UTC+00:00)

Vanguard 3 - Pass Details

Date: 24 October 2019
Orbit: 507 x 3263 km, 33.4° (Epoch: 20 November)

Event Time Altitude Azimuth Distance (km) Brightness Sun altitude
Rises 23:05:10 0° 272° (W) 3,061 - -16.8°
Reaches altitude 10° 23:07:37 10° 256° (WSW) 2,378 - -16.3°
Exits shadow 23:09:14 17° 240° (WSW) 2,088 8.8 -15.9°
Maximum altitude 23:12:00 23° 204° (SSW) 2,055 9.0 -15.3°
Drops below altitude 10° 23:18:23 10° 156° (SSE) 3,602 10.8 -13.9°
Sets 23:23:12 0° 145° (SE) 5,138 11.9 -12.9°
